| time (UTC) | temp F | wind direction | speed knots | gust knots | rain 1hr in | rain 24hr in | rain mn in | humidity % | barometer mb |
| 20260504205003 | 76 | 343 | 0.0 | 1.7 | 0.00 | 0.00 | 0.00 | 38 | 1015.2 |
| 20260504204510 | 76 | 340 | 0.0 | 0.0 | 0.00 | 0.00 | 0.00 | 38 | 1015.2 |
| 20260504204003 | 76 | 55 | 0.0 | 1.7 | 0.00 | 0.00 | 0.00 | 39 | 1015.1 |
| 20260504203503 | 76 | 326 | 0.0 | 1.7 | 0.00 | 0.00 | 0.00 | 40 | 1015.1 |
| 20260504203014 | 76 | 333 | 0.0 | 2.6 | 0.00 | 0.00 | 0.00 | 41 | 1015.1 |
| 20260504202504 | 76 | 5 | 0.0 | 2.6 | 0.00 | 0.00 | 0.00 | 40 | 1015.2 |
| 20260504202004 | 77 | 352 | 0.0 | 1.7 | 0.00 | 0.00 | 0.00 | 42 | 1015.3 |
| 20260504201510 | 77 | 161 | 0.0 | 0.9 | 0.00 | 0.00 | 0.00 | 41 | 1015.4 |
| 20260504201005 | 77 | 136 | 0.0 | 3.5 | 0.00 | 0.00 | 0.00 | 41 | 1015.4 |
| 20260504200513 | 77 | 58 | 0.0 | 3.5 | 0.00 | 0.00 | 0.00 | 40 | 1015.5 |
| 20260504200009 | 77 | 317 | 0.0 | 3.5 | 0.00 | 0.00 | 0.00 | 42 | 1015.6 |
| 20260504195506 | 77 | 119 | 0.0 | 2.6 | 0.00 | 0.00 | 0.00 | 37 | 1015.6 |
| 20260504195003 | 78 | 291 | 0.0 | 3.5 | 0.00 | 0.00 | 0.00 | 41 | 1015.6 |
| 20260504194505 | 78 | 88 | 0.9 | 3.5 | 0.00 | 0.00 | 0.00 | 39 | 1015.7 |
| 20260504194003 | 78 | 25 | 0.0 | 1.7 | 0.00 | 0.00 | 0.00 | 39 | 1015.7 |
| 20260504193504 | 78 | 316 | 0.0 | 1.7 | 0.00 | 0.00 | 0.00 | 39 | 1015.8 |
| 20260504193010 | 78 | 205 | 0.0 | 0.9 | 0.00 | 0.00 | 0.00 | 38 | 1015.9 |
| 20260504192503 | 79 | 35 | 0.0 | 1.7 | 0.00 | 0.00 | 0.00 | 40 | 1015.9 |
| 20260504192007 | 79 | 306 | 0.0 | 3.5 | 0.00 | 0.00 | 0.00 | 38 | 1015.9 |
| 20260504191531 | 79 | 296 | 0.9 | 3.5 | 0.00 | 0.00 | 0.00 | 41 | 1016.0 |
| 20260504191008 | 79 | 311 | 0.0 | 3.5 | 0.00 | 0.00 | 0.00 | 38 | 1016.0 |
| 20260504190504 | 80 | 40 | 0.9 | 3.5 | 0.00 | 0.00 | 0.00 | 38 | 1016.1 |
| 20260504190019 | 80 | 167 | 0.0 | 2.6 | 0.00 | 0.00 | 0.00 | 37 | 1016.1 |
| 20260504185507 | 80 | 296 | 0.0 | 2.6 | 0.00 | 0.00 | 0.00 | 37 | 1016.3 |
| 20260504185003 | 80 | 81 | 0.0 | 2.6 | 0.00 | 0.00 | 0.00 | 38 | 1016.3 |
| 20260504184508 | 81 | 32 | 0.0 | 2.6 | 0.00 | 0.00 | 0.00 | 35 | 1016.4 |
| 20260504184002 | 81 | 155 | 0.0 | 2.6 | 0.00 | 0.00 | 0.00 | 33 | 1016.5 |
| 20260504183502 | 81 | 44 | 0.0 | 0.9 | 0.00 | 0.00 | 0.00 | 34 | 1016.5 |
| 20260504183011 | 81 | 272 | 0.0 | 1.7 | 0.00 | 0.00 | 0.00 | 35 | 1016.5 |
| 20260504182503 | 81 | 9 | 0.0 | 1.7 | 0.00 | 0.00 | 0.00 | 37 | 1016.5 |
| 20260504182003 | 81 | 42 | 0.0 | 0.9 | 0.00 | 0.00 | 0.00 | 37 | 1016.6 |
| 20260504181513 | 81 | 39 | 0.0 | 1.7 | 0.00 | 0.00 | 0.00 | 37 | 1016.6 |
| 20260504181003 | 81 | 300 | 0.0 | 1.7 | 0.00 | 0.00 | 0.00 | 39 | 1016.7 |
| 20260504180507 | 81 | 48 | 0.0 | 1.7 | 0.00 | 0.00 | 0.00 | 38 | 1016.8 |
| 20260504180023 | 81 | 163 | 0.0 | 1.7 | 0.00 | 0.00 | 0.00 | 39 | 1017.0 |
| 20260504175504 | 80 | 319 | 0.0 | 0.9 | 0.00 | 0.00 | 0.00 | 39 | 1017.1 |
| 20260504175006 | 80 | 339 | 0.0 | 1.7 | 0.00 | 0.00 | 0.00 | 39 | 1017.2 |
| 20260504174520 | 79 | 40 | 0.0 | 1.7 | 0.00 | 0.00 | 0.00 | 40 | 1017.2 |
| 20260504174003 | 79 | 352 | 0.0 | 0.0 | 0.00 | 0.00 | 0.00 | 39 | 1017.3 |
| 20260504173503 | 79 | 227 | 0.0 | 3.5 | 0.00 | 0.00 | 0.00 | 44 | 1017.3 |
| 20260504173011 | 78 | 311 | 0.0 | 3.5 | 0.00 | 0.00 | 0.00 | 42 | 1017.4 |
| 20260504172502 | 78 | 132 | 0.0 | 2.6 | 0.00 | 0.00 | 0.00 | 43 | 1017.4 |
| 20260504172002 | 78 | 36 | 0.0 | 2.6 | 0.00 | 0.00 | 0.00 | 43 | 1017.4 |
| 20260504171513 | 78 | 144 | 0.0 | 1.7 | 0.00 | 0.00 | 0.00 | 39 | 1017.5 |
| 20260504171006 | 77 | 164 | 0.0 | 1.7 | 0.00 | 0.00 | 0.00 | 40 | 1017.6 |
| 20260504170506 | 77 | 148 | 0.0 | 1.7 | 0.00 | 0.00 | 0.00 | 46 | 1017.6 |
| 20260504151005 | 61 | 86 | 0.0 | 0.0 | 0.00 | 0.00 | 0.00 | 63 | 1018.6 |
| 20260504150504 | 60 | 259 | 0.0 | 0.0 | 0.00 | 0.00 | 0.00 | 65 | 1018.5 |
| 20260504141017 | 53 | 330 | 0.0 | 1.7 | 0.00 | 0.00 | 0.00 | 84 | 1019.1 |
| 20260504140504 | 52 | 104 | 0.0 | 1.7 | 0.00 | 0.00 | 0.00 | 86 | 1019.0 |
| 20260504130511 | 48 | 225 | 0.0 | 0.0 | 0.00 | 0.00 | 0.00 | 89 | 1018.9 |
| 20260504110511 | 47 | 232 | 0.0 | 0.0 | 0.00 | 0.00 | 0.00 | 85 | 1018.5 |
| 20260504100506 | 47 | 232 | 0.0 | 0.0 | 0.00 | 0.00 | 0.00 | 84 | 1018.2 |
| 20260504082003 | 48 | 233 | 0.0 | 0.0 | 0.00 | 0.00 | 0.00 | 80 | 1018.1 |
| 20260504081512 | 49 | 232 | 0.0 | 0.0 | 0.00 | 0.00 | 0.00 | 80 | 1018.2 |
| 20260504081009 | 49 | 232 | 0.0 | 0.0 | 0.00 | 0.00 | 0.00 | 80 | 1018.2 |
| 20260504080505 | 49 | 233 | 0.0 | 0.0 | 0.00 | 0.00 | 0.00 | 80 | 1018.2 |
| 20260504050508 | 52 | 233 | 0.0 | 0.0 | 0.00 | 0.00 | 0.00 | 72 | 1018.9 |
| 20260504050011 | 52 | 233 | 0.0 | 0.0 | 0.00 | 0.00 | 0.00 | 72 | 1019.0 |
| 20260504045503 | 53 | 233 | 0.0 | 0.0 | 0.00 | 0.00 | 0.00 | 71 | 1019.1 |
| 20260504045004 | 53 | 232 | 0.0 | 0.0 | 0.00 | 0.00 | 0.00 | 71 | 1019.0 |
| 20260504044510 | 53 | 233 | 0.0 | 0.0 | 0.00 | 0.00 | 0.00 | 70 | 1018.9 |
| 20260504044007 | 53 | 233 | 0.0 | 0.0 | 0.00 | 0.00 | 0.00 | 69 | 1018.9 |
| 20260504043507 | 53 | 233 | 0.0 | 0.0 | 0.00 | 0.00 | 0.00 | 69 | 1018.8 |
| 20260504043008 | 53 | 232 | 0.0 | 0.0 | 0.00 | 0.00 | 0.00 | 68 | 1018.9 |
| 20260504042505 | 53 | 233 | 0.0 | 0.0 | 0.00 | 0.00 | 0.00 | 68 | 1019.1 |
| 20260504042007 | 53 | 233 | 0.0 | 0.0 | 0.00 | 0.00 | 0.00 | 68 | 1019.1 |
| 20260504041525 | 54 | 232 | 0.0 | 0.0 | 0.00 | 0.00 | 0.00 | 67 | 1019.2 |
| 20260504041003 | 54 | 233 | 0.0 | 0.0 | 0.00 | 0.00 | 0.00 | 67 | 1019.1 |
| 20260504040503 | 54 | 232 | 0.0 | 0.0 | 0.00 | 0.00 | 0.00 | 67 | 1019.1 |
| 20260504040027 | 54 | 232 | 0.0 | 0.0 | 0.00 | 0.00 | 0.00 | 66 | 1019.1 |
| 20260504035506 | 54 | 232 | 0.0 | 0.0 | 0.00 | 0.00 | 0.00 | 66 | 1019.2 |
| 20260504035008 | 54 | 233 | 0.0 | 0.0 | 0.00 | 0.00 | 0.00 | 66 | 1019.2 |
| 20260504034514 | 55 | 232 | 0.0 | 0.0 | 0.00 | 0.00 | 0.00 | 65 | 1019.2 |
| 20260504034004 | 55 | 233 | 0.0 | 0.0 | 0.00 | 0.00 | 0.00 | 65 | 1019.3 |
| 20260504033504 | 55 | 233 | 0.0 | 0.0 | 0.00 | 0.00 | 0.00 | 65 | 1019.2 |
| 20260504033019 | 55 | 233 | 0.0 | 0.0 | 0.00 | 0.00 | 0.00 | 64 | 1019.1 |
| 20260504032507 | 55 | 232 | 0.0 | 0.0 | 0.00 | 0.00 | 0.00 | 64 | 1019.2 |
| 20260504032012 | 55 | 233 | 0.0 | 0.0 | 0.00 | 0.00 | 0.00 | 63 | 1019.1 |
| 20260504031514 | 56 | 233 | 0.0 | 0.0 | 0.00 | 0.00 | 0.00 | 63 | 1019.1 |
| 20260504031005 | 56 | 233 | 0.0 | 0.0 | 0.00 | 0.00 | 0.00 | 62 | 1019.1 |
| 20260504030507 | 56 | 232 | 0.0 | 0.0 | 0.00 | 0.00 | 0.00 | 61 | 1019.1 |
| 20260504030010 | 56 | 233 | 0.0 | 0.0 | 0.00 | 0.00 | 0.00 | 61 | 1019.1 |
| 20260504025504 | 56 | 233 | 0.0 | 0.0 | 0.00 | 0.00 | 0.00 | 61 | 1019.1 |
| 20260504025008 | 56 | 233 | 0.0 | 0.0 | 0.00 | 0.00 | 0.00 | 60 | 1019.0 |
| 20260504024513 | 57 | 232 | 0.0 | 0.0 | 0.00 | 0.00 | 0.00 | 60 | 1019.0 |
| 20260504024008 | 57 | 233 | 0.0 | 0.0 | 0.00 | 0.00 | 0.00 | 59 | 1018.9 |
| 20260504023505 | 57 | 233 | 0.0 | 0.0 | 0.00 | 0.00 | 0.00 | 59 | 1018.8 |
| 20260504023016 | 57 | 232 | 0.0 | 0.0 | 0.00 | 0.00 | 0.00 | 59 | 1018.8 |
| 20260504022503 | 57 | 232 | 0.0 | 0.0 | 0.00 | 0.00 | 0.00 | 58 | 1018.9 |
| 20260504022007 | 57 | 232 | 0.0 | 0.0 | 0.00 | 0.00 | 0.00 | 57 | 1018.8 |
| 20260504021524 | 58 | 232 | 0.0 | 0.0 | 0.00 | 0.00 | 0.00 | 57 | 1018.7 |
| 20260504021008 | 58 | 233 | 0.0 | 0.0 | 0.00 | 0.00 | 0.00 | 56 | 1018.6 |
| 20260504020503 | 58 | 232 | 0.0 | 0.0 | 0.00 | 0.00 | 0.00 | 56 | 1018.5 |
| 20260504020020 | 58 | 233 | 0.0 | 0.0 | 0.00 | 0.00 | 0.00 | 54 | 1018.5 |
| 20260504015511 | 59 | 232 | 0.0 | 0.0 | 0.00 | 0.00 | 0.00 | 55 | 1018.5 |
| 20260504015012 | 59 | 233 | 0.0 | 0.0 | 0.00 | 0.00 | 0.00 | 54 | 1018.4 |
| 20260504014524 | 59 | 233 | 0.0 | 0.0 | 0.00 | 0.00 | 0.00 | 54 | 1018.3 |
| 20260504014003 | 59 | 233 | 0.0 | 0.0 | 0.00 | 0.00 | 0.00 | 52 | 1018.3 |
| 20260504013503 | 60 | 233 | 0.0 | 0.0 | 0.00 | 0.00 | 0.00 | 52 | 1018.2 |
| 20260504013014 | 60 | 233 | 0.0 | 0.0 | 0.00 | 0.00 | 0.00 | 51 | 1018.3 |
| 20260504012507 | 60 | 233 | 0.0 | 0.0 | 0.00 | 0.00 | 0.00 | 51 | 1018.3 |
| 20260504012008 | 60 | 233 | 0.0 | 0.0 | 0.00 | 0.00 | 0.00 | 49 | 1018.1 |
| 20260504011520 | 61 | 233 | 0.0 | 0.0 | 0.00 | 0.00 | 0.00 | 48 | 1018.0 |
| 20260504011007 | 61 | 232 | 0.0 | 0.0 | 0.00 | 0.00 | 0.00 | 48 | 1018.0 |
| 20260504010507 | 61 | 232 | 0.0 | 0.0 | 0.00 | 0.00 | 0.00 | 47 | 1017.9 |
| 20260504010022 | 62 | 233 | 0.0 | 0.0 | 0.00 | 0.00 | 0.00 | 45 | 1017.9 |
| 20260504005505 | 62 | 233 | 0.0 | 0.0 | 0.00 | 0.00 | 0.00 | 45 | 1017.9 |
| 20260504005006 | 62 | 233 | 0.0 | 0.0 | 0.00 | 0.00 | 0.00 | 44 | 1017.9 |
| 20260504004539 | 63 | 233 | 0.0 | 0.0 | 0.00 | 0.00 | 0.00 | 43 | 1017.9 |
| 20260504004009 | 63 | 233 | 0.0 | 0.0 | 0.00 | 0.00 | 0.00 | 42 | 1017.8 |
| 20260504003505 | 63 | 232 | 0.0 | 0.0 | 0.00 | 0.00 | 0.00 | 42 | 1017.8 |
| 20260504003024 | 64 | 233 | 0.0 | 0.0 | 0.00 | 0.00 | 0.00 | 40 | 1017.7 |
| 20260504002503 | 64 | 233 | 0.0 | 0.0 | 0.00 | 0.00 | 0.00 | 40 | 1017.7 |
| 20260504002006 | 64 | 233 | 0.0 | 0.0 | 0.00 | 0.00 | 0.00 | 39 | 1017.7 |
| 20260504001520 | 65 | 233 | 0.0 | 0.0 | 0.00 | 0.00 | 0.00 | 38 | 1017.7 |
| 20260504001007 | 65 | 233 | 0.0 | 0.0 | 0.00 | 0.00 | 0.00 | 39 | 1017.8 |
| 20260504000505 | 65 | 242 | 0.0 | 0.0 | 0.00 | 0.00 | 0.00 | 38 | 1017.7 |
| 20260504000020 | 65 | 242 | 0.0 | 0.0 | 0.00 | 0.00 | 0.00 | 37 | 1017.8 |
| 20260503235506 | 66 | 240 | 0.0 | 0.0 | 0.00 | 0.00 | 0.00 | 38 | 1017.7 |
| 20260503235005 | 66 | 241 | 0.0 | 0.0 | 0.00 | 0.00 | 0.00 | 37 | 1017.6 |
| 20260503234517 | 66 | 206 | 0.0 | 0.0 | 0.00 | 0.00 | 0.00 | 39 | 1017.6 |
| 20260503234003 | 66 | 265 | 0.0 | 0.0 | 0.00 | 0.00 | 0.00 | 41 | 1017.6 |
| 20260503233502 | 66 | 176 | 0.0 | 1.7 | 0.00 | 0.00 | 0.00 | 41 | 1017.6 |
| 20260503233012 | 66 | 43 | 0.0 | 1.7 | 0.00 | 0.00 | 0.00 | 41 | 1017.6 |
| 20260503232507 | 67 | 117 | 0.0 | 1.7 | 0.00 | 0.00 | 0.00 | 41 | 1017.6 |
| 20260503232005 | 67 | 116 | 0.0 | 1.7 | 0.00 | 0.00 | 0.00 | 40 | 1017.6 |
| 20260503231509 | 67 | 278 | 0.0 | 1.7 | 0.00 | 0.00 | 0.00 | 40 | 1017.6 |
| 20260503231003 | 67 | 94 | 0.0 | 0.0 | 0.00 | 0.00 | 0.00 | 42 | 1017.6 |
| 20260503230508 | 67 | 217 | 0.0 | 0.9 | 0.00 | 0.00 | 0.00 | 41 | 1017.6 |
| 20260503230023 | 67 | 215 | 0.0 | 0.9 | 0.00 | 0.00 | 0.00 | 41 | 1017.6 |
| 20260503225503 | 67 | 243 | 0.0 | 0.0 | 0.00 | 0.00 | 0.00 | 41 | 1017.7 |
| 20260503225007 | 68 | 288 | 0.0 | 1.7 | 0.00 | 0.00 | 0.00 | 39 | 1017.7 |
| 20260503224524 | 68 | 130 | 0.0 | 0.9 | 0.00 | 0.00 | 0.00 | 39 | 1017.8 |
| 20260503224003 | 68 | 196 | 0.0 | 1.7 | 0.00 | 0.00 | 0.00 | 39 | 1017.7 |
| 20260503223503 | 68 | 36 | 0.0 | 1.7 | 0.00 | 0.00 | 0.00 | 39 | 1017.8 |
| 20260503223012 | 68 | 232 | 0.0 | 1.7 | 0.00 | 0.00 | 0.00 | 40 | 1017.6 |
| 20260503222503 | 68 | 5 | 0.0 | 0.0 | 0.00 | 0.00 | 0.00 | 42 | 1017.6 |
| 20260503222004 | 68 | 298 | 0.0 | 0.0 | 0.00 | 0.00 | 0.00 | 39 | 1017.6 |
| 20260503221511 | 68 | 11 | 0.0 | 0.0 | 0.00 | 0.00 | 0.00 | 39 | 1017.7 |
| 20260503221006 | 68 | 304 | 0.0 | 0.0 | 0.00 | 0.00 | 0.00 | 38 | 1017.7 |
| 20260503220506 | 68 | 252 | 0.0 | 0.0 | 0.00 | 0.00 | 0.00 | 40 | 1017.7 |
| 20260503220017 | 68 | 219 | 0.0 | 0.0 | 0.00 | 0.00 | 0.00 | 38 | 1017.7 |
| 20260503215506 | 68 | 333 | 0.0 | 1.7 | 0.00 | 0.00 | 0.00 | 37 | 1017.8 |
| 20260503215005 | 69 | 124 | 0.0 | 1.7 | 0.00 | 0.00 | 0.00 | 37 | 1017.9 |
| 20260503214510 | 69 | 334 | 0.0 | 1.7 | 0.00 | 0.00 | 0.00 | 38 | 1017.8 |
| 20260503214003 | 69 | 169 | 0.0 | 2.6 | 0.00 | 0.00 | 0.00 | 37 | 1017.7 |
| 20260503213508 | 69 | 350 | 0.9 | 2.6 | 0.00 | 0.00 | 0.00 | 37 | 1017.8 |
| 20260503213026 | 69 | 21 | 0.0 | 1.7 | 0.00 | 0.00 | 0.00 | 38 | 1017.9 |
| 20260503212503 | 69 | 192 | 0.0 | 0.9 | 0.00 | 0.00 | 0.00 | 38 | 1017.9 |
| 20260503212005 | 69 | 349 | 0.0 | 1.7 | 0.00 | 0.00 | 0.00 | 41 | 1018.0 |
| 20260503211508 | 69 | 312 | 0.0 | 3.5 | 0.00 | 0.00 | 0.00 | 39 | 1018.1 |
| 20260503211002 | 69 | 202 | 0.0 | 3.5 | 0.00 | 0.00 | 0.00 | 38 | 1018.0 |
| 20260503210506 | 69 | 207 | 0.0 | 3.5 | 0.00 | 0.00 | 0.00 | 38 | 1018.0 |
| 20260503210016 | 69 | 360 | 0.0 | 1.7 | 0.00 | 0.00 | 0.00 | 38 | 1018.0 |
| 20260503205510 | 69 | 192 | 0.0 | 1.7 | 0.00 | 0.00 | 0.00 | 37 | 1018.0 |